Weather History for Battle Creek, MI

Change the Weather History Date:

Tuesday, September 3, 2013

  Actual Average Record
Temperature  
Mean Temperature 66 °F 66 °F  
Max Temperature 74 °F 78 °F 90 °F (2011)
Min Temperature 57 °F 55 °F 46 °F (1997)
Degree Days  
Heating Degree Days 0 2  
Month to date heating degree days 0 6  
Since 1 July heating degree days 38 47  
Cooling Degree Days 1 3  
Month to date cooling degree days 14 11  
Year to date cooling degree days 619 529  
Growing Degree Days 15 (Base 50)    
Moisture  
Dew Point 52 °F    
Average Humidity 68    
Maximum Humidity 86    
Minimum Humidity 49    
Precipitation  
Precipitation 0.00 in 0.11 in 0.48 in (2010)
Month to date precipitation T 0.35  
Year to date precipitation 26.17 21.89  
Sea Level Pressure  
Sea Level Pressure 30.02 in    
Wind  
Wind Speed 7 mph (NW)    
Max Wind Speed 13 mph    
Max Gust Speed 17 mph    
Visibility 10 miles    
Events      
T = Trace of Precipitation, MM = Missing Value Source: NWS Daily Summary

Daily Weather History Graph

Daily Weather History Graph

Search for Another Location

Airport:

Trip Planner

Search our weather history database for the weather conditions in past years. The results will help you decide how hot, cold, wet, or windy it might be!

Date:

Astronomy

Sep. 03, 2013 Rise Set
Actual Time 7:08 AM EDT 8:11 PM EDT
Civil Twilight 6:39 AM EDT 8:39 PM EDT
Nautical Twilight 6:05 AM EDT 9:13 PM EDT
Astronomical Twilight 5:29 AM EDT 9:49 PM EDT
Moon 5:20 AM EDT (9/3) 6:58 PM EDT (9/3)
Length of Visible Light 13h 59m
Length of Day
13h 02m
Waning Crescent, 3% of the Moon is Illuminated
Sep 3
Waning Crescent
Sep 5
New
Sep 12
First Quarter
Sep 19
Full
Sep 26
Last Quarter

Hourly Weather History & Observations

Time (EDT) Temp. Dew Point Humidity Pressure Visibility Wind Dir Wind Speed Gust Speed Precip Events Conditions
12:38 AM 59.0 °F 50.0 °F 72% 29.98 in 10.0 mi NNW 8.1 mph - N/A   Overcast
12:53 AM 59.0 °F 50.0 °F 72% 29.97 in 10.0 mi NNW 5.8 mph - N/A   Overcast
1:53 AM 59.0 °F 51.1 °F 75% 29.98 in 10.0 mi NNW 6.9 mph - N/A   Overcast
2:53 AM 59.0 °F 48.9 °F 69% 29.97 in 10.0 mi NNW 6.9 mph - N/A   Overcast
3:53 AM 59.0 °F 48.9 °F 69% 29.96 in 10.0 mi North 8.1 mph - N/A   Overcast
4:53 AM 59.0 °F 50.0 °F 72% 29.98 in 10.0 mi NNW 4.6 mph - N/A   Overcast
5:53 AM 57.9 °F 50.0 °F 75% 30.00 in 10.0 mi NNW 5.8 mph - N/A   Overcast
6:41 AM 57.2 °F 50.0 °F 77% 30.02 in 10.0 mi NW 5.8 mph - N/A   Overcast
6:53 AM 57.9 °F 50.0 °F 75% 30.01 in 10.0 mi NW 4.6 mph - N/A   Overcast
7:53 AM 57.9 °F 51.1 °F 78% 30.03 in 10.0 mi NNW 5.8 mph - N/A   Scattered Clouds
8:18 AM 57.2 °F 51.8 °F 82% 30.04 in 10.0 mi North 6.9 mph - N/A   Mostly Cloudy
8:53 AM 57.9 °F 50.0 °F 75% 30.05 in 10.0 mi North 5.8 mph - N/A   Overcast
9:13 AM 60.8 °F 51.8 °F 72% 30.06 in 10.0 mi NNW 5.8 mph - N/A   Scattered Clouds
9:53 AM 61.0 °F 51.1 °F 70% 30.06 in 10.0 mi NNW 9.2 mph - N/A   Partly Cloudy
10:53 AM 64.0 °F 51.1 °F 63% 30.06 in 10.0 mi North 6.9 mph - N/A   Clear
11:53 AM 66.9 °F 52.0 °F 59% 30.06 in 10.0 mi NNW 8.1 mph 16.1 mph N/A   Scattered Clouds
12:53 PM 68.0 °F 53.1 °F 59% 30.06 in 10.0 mi NW 9.2 mph - N/A   Mostly Cloudy
1:53 PM 70.0 °F 54.0 °F 57% 30.05 in 10.0 mi NNW 8.1 mph - N/A   Clear
2:53 PM 71.1 °F 53.1 °F 53% 30.04 in 10.0 mi WNW 8.1 mph - N/A   Clear
3:53 PM 72.0 °F 51.1 °F 48% 30.02 in 10.0 mi WNW 6.9 mph - N/A   Clear
4:53 PM 73.0 °F 54.0 °F 51% 30.01 in 10.0 mi NW 9.2 mph - N/A   Clear
5:53 PM 72.0 °F 54.0 °F 53% 30.02 in 10.0 mi WNW 9.2 mph - N/A   Clear
6:53 PM 70.0 °F 55.0 °F 59% 30.03 in 10.0 mi WNW 10.4 mph - N/A   Clear
7:53 PM 66.0 °F 55.0 °F 68% 30.03 in 10.0 mi WNW 8.1 mph - N/A   Clear
8:53 PM 62.1 °F 55.0 °F 78% 30.05 in 10.0 mi WNW 6.9 mph - N/A   Clear
9:53 PM 60.1 °F 55.0 °F 83% 30.06 in 10.0 mi West 5.8 mph - N/A   Clear
10:53 PM 57.9 °F 54.0 °F 87% 30.05 in 10.0 mi SSW 3.5 mph - N/A   Clear
11:53 PM 57.9 °F 54.0 °F 87% 30.04 in 10.0 mi Calm Calm - N/A   Clear